Regional Weather Roundup
Issued by NWS

Home | Current Version | Previous Version | Text Only | Print | Product List | Glossary On
Versions: 1 2 3 4 5 6 7 8 9 10 11 12 13 14 15 16 17 18 19 20 21 22 23 24 25 26 27 28 29 30 31 32 33 34 35 36 37 38 39 40 41 42 43 44 45 46 47 48
000
ASUS43 KMPX 130310
RWRMN
WEATHER ROUNDUP FOR MINNESOTA
NATIONAL WEATHER SERVICE TWIN CITIES/CHANHASSEN MN
1000 PM CDT WED AUG 12 2020


NOTE: "FAIR" INDICATES FEW OR NO CLOUDS BELOW 12,000 FEET WITH NO
SIGNIFICANT WEATHER AND/OR OBSTRUCTIONS TO VISIBILITY. N/A MEANS
CURRENT SKY AND/OR WEATHER CONDITIONS ARE NOT AVAILABLE.

MNZ060>063-068>070-130400-
   Twin Cities Metro

CITY           SKY/WX    TMP DP  RH WIND       PRES   REMARKS
TWIN CITIES    CLOUDY    67  64  90 E8        30.01S
ST PAUL        MOCLDY    67  62  84 E5        30.02R
CRYSTAL        MOCLDY    66  62  87 SE5       30.00S
BLAINE         CLOUDY    66  64  94 E6        30.01S
LAKEVILLE      CLOUDY    68  64  88 E7        30.01R
EDEN PRAIRIE   CLOUDY    67  63  87 NE8       29.99R
SOUTH ST PAUL  MOCLDY    67  64  89 E3        30.01F
LAKE ELMO      FAIR      63  63 100 E5        30.04S
$$
MNZ001>005-007-008-013>017-022>024-027-028-130400-
   Northwest Minnesota

CITY           SKY/WX    TMP DP  RH WIND       PRES   REMARKS
BEMIDJI        CLEAR     65  61  87 SE12      30.02R
HALLOCK        CLEAR     70  66  88 SE8       29.93R
ROSEAU         CLEAR     70 N/A N/A S8        29.98R
WARROAD        CLEAR     70  66  88 S8        29.99R
THIEF RVR FALL CLEAR     67  62  84 SE9       29.98R
CROOKSTON      CLEAR     66  63  88 SE6       29.95R
FOSSTON        CLEAR     64  57  77 E6        29.98S
DETROIT LAKES    N/A     64  59  82 SE13      29.98S
MOORHEAD       CLOUDY    72  59  64 E7        29.93S
PARK RAPIDS    CLEAR     65  60  84 E10       30.00S
MAHNOMEN       FAIR      66  60  82 SE10      29.96F
$$
MNZ006-009>011-018-025>026-130400-
   North Central Minnesota

CITY           SKY/WX    TMP DP  RH WIND       PRES   REMARKS
BAUDETTE       CLEAR     69  64  84 S8        30.02R
FLAG ISLAND      N/A     75  64  69 SE9       29.98R
INTL FALLS     CLEAR     65  59  81 S3        30.04R
WASKISH          N/A     64  61  88 CALM      30.02S
BIG FORK       CLEAR     61  59  94 CALM      30.10S
LONGVILLE      CLOUDY    64  61  88 E8        30.03S
GRAND RAPIDS   CLEAR     61  57  87 SE6       30.09S
CRANE LAKE     CLEAR     61  57  88 CALM      30.08S
ORR            CLEAR     64  59  82 SE5       30.05S
COOK           CLEAR     63  61  94 CALM      30.08R
WALKER         MOCLDY    65  62  88 E9        30.03R
$$
MNZ012-019>021-037-130400-
   Northeast Minnesota

CITY           SKY/WX    TMP DP  RH WIND       PRES   REMARKS
DULUTH         CLOUDY    60  56  86 SE6       30.09R
ELY            PTCLDY    64  57  77 S5        30.10R
HIBBING        CLEAR     57  54  89 E3        30.09R
EVELETH        PTCLDY    60  57  89 CALM      30.11S
DULUTH HARBOR  MOCLDY    64  57  77 S3        30.10R
TWO HARBORS    PTCLDY    61  52  72 CALM      30.09R
SILVER BAY       N/A     61  59  94 CALM      30.10R
GRAND MARAIS     N/A     62  56  80 N3        30.09R
G MARAIS ARPRT PTCLDY    61  54  77 CALM      30.13S
$$
MNZ029>031-032-039>041-046>048-054>057-064-130400-
   West Central Minnesota

CITY           SKY/WX    TMP DP  RH WIND       PRES   REMARKS
FERGUS FALLS   CLOUDY    70  63  78 SE10      29.94S
WHEATON        PTCLDY    66  61  82 E13       29.93S
MORRIS         PTCLDY    66  66 100 E10       29.94S
ALEXANDRIA     PTCLDY    64  61  90 E15       29.98S
ELBOW LAKE     MOCLDY    66  63  87 SE12G22   29.95R
WADENA         CLOUDY    63  63 100 E10       29.99S
GLENWOOD       CLEAR     63  63 100 E10       29.98S
APPLETON       CLEAR     68  63  83 E10       29.92R
BENSON         CLEAR     66  63  88 SE8       29.95R
ORTONVILLE     CLEAR     66  64  94 E12G17    29.91R
MADISON        PTCLDY    73  70  88 E10       29.92R
WILLMAR        FAIR      68  63  83 E10       29.98S
$$
MNZ033>034-036-042>043-049>051-058-059-130400-
   Central Minnesota

CITY           SKY/WX    TMP DP  RH WIND       PRES   REMARKS
ST CLOUD       CLOUDY    62  60  93 E8        30.01R
SAUK CENTRE    CLOUDY    63  62  96 E8        29.99S
PAYNESVILLE    MOCLDY    65  63  95 E9        29.99S
AITKIN         CLOUDY    59  55  88 E5        30.05R
PINE RIVER     CLOUDY    63  57  82 SE12      30.06S
BRAINERD       PTCLDY    65  60  84 E3        30.03S
STAPLES        CLOUDY    63  61  94 SE7       30.01S
LONG PRAIRIE   CLOUDY    63  61  94 E8        30.00S
LITTLE FALLS   CLOUDY    61  61 100 SE3       30.02R
CAMP RIPLEY    CLOUDY    63  61  93 SE5       30.03R
LITCHFIELD     PTCLDY    66  64  94 E9        29.99S
BUFFALO        CLOUDY    64  60  86 MISG      30.02R
MAPLE LAKE       N/A     65  63  93 E7        30.02S
HUTCHINSON     MOCLDY    66  64  94 E7        30.00R
$$
MNZ037-044-045-052-053-130400-
   East Central Minnesota

CITY           SKY/WX    TMP DP  RH WIND       PRES   REMARKS
PRINCETON      CLOUDY    64  63  94 E6        30.03R
MORA           CLOUDY    59  57  94 E3        30.06F
CAMBRIDGE      MOCLDY    63  54  72 NE6       30.04R
RUSH CITY      CLOUDY    59  57  91 E5        30.05S
MOOSE LAKE     CLOUDY    61  57  88 E3        30.06S
HINCKLEY       LGT RAIN  61  61 100 E9        30.06S
CLOQUET        PTCLDY    59  55  88 CALM      30.09S
MCGREGOR       PTCLDY    61  57  88 E6        30.07S
$$
MNZ071>073-080-081-089-090-097-098-130400-
   Southwest Minnesota

CITY           SKY/WX    TMP DP  RH WIND       PRES   REMARKS
MONTEVIDEO     CLEAR     66  63  88 SE12      29.93S
GRANITE FALLS  PTCLDY    73  70  91 CALM      29.94S
CANBY          MOCLDY    77  74  90 E6        29.92R
MARSHALL       PTCLDY    78  72  81 SE9       29.93R
REDWOOD FALLS  PTCLDY    74  68  81 E10       29.94R
OLIVIA         CLEAR     66  63  88 E7        29.96R
PIPESTONE        N/A     75  70  83 S6        29.95R
WINDOM         CLEAR     75  70  83 SE8       29.96R
WORTHINGTON    CLEAR     73  70  90 S8        29.98R
JACKSON        CLEAR     73  70  88 S10       29.98S
TRACY          CLEAR     73  68  83 CALM      29.95R
SLAYTON        CLEAR     72  65  78 SE6       29.97R
$$
MNZ065>067-074>077-082>085-091>093-130400-
   South Central Minnesota

CITY           SKY/WX    TMP DP  RH WIND       PRES   REMARKS
MANKATO        CLOUDY    74  70  87 E8        29.99R
NEW ULM        CLOUDY    75  68  78 E9        29.97R
ST JAMES         N/A     73  72  94 SE5       29.96R
FAIRMONT       CLEAR     75  72  90 S13       29.97R
GLENCOE        CLOUDY    65  63  91 E7        29.99R
FARIBAULT      CLOUDY    73  64  73 E8        30.00S
OWATONNA       CLEAR     72  64  78 SE8       30.01R
ALBERT LEA     CLEAR     72  66  83 SE9       30.01R
$$
MNZ078>079-086>088-094>096-130400-
   Southeast Minnesota

CITY           SKY/WX    TMP DP  RH WIND       PRES   REMARKS
ROCHESTER      CLEAR     67  61  81 SE9       30.04R
RED WING       PTCLDY    70  63  78 E5        30.01R
STANTON        CLOUDY    70  66  89 NE3       30.00R
DODGE CENTER   CLEAR     66  61  82 SE6       30.03R
WINONA         CLEAR     68  64  88 CALM      30.04S
AUSTIN         CLEAR     70  66  88 SE5       30.03R
PRESTON        CLEAR     69  61  75 SE7       30.06R
$$
ABBREVIATIONS USED IN REMARKS
   TC - TEMPERATURES IN CELSIUS
  WCI - WIND CHILL INDEX
   HX - HEAT INDEX
  VSB - VISIBILITY
$$




USA.gov is the U.S. government's official web portal to all federal, state and local government web resources and services.